STARLINK-30954, 58407

Orbit data source: Space-Track

STARLINK-30954, 58407 is a payload satellite owned by SpaceX/Seattle (US) in LEO that was launched on Wed, 22 Nov 2023 UTC via an FALCON 9 launch vehicle from the Air Force Eastern Test Range (AFETR). Payload-class satellites include a variety of spacecraft equipped with specific instruments for various scientific and technological missions. These include communications satellites like Starlink; space stations such as the ISS; scientific satellites like the Hubble; Earth observation satellites from companies like Planet Labs, Umbra, and HawkEye 360; GPS; miniature CubeSats for education and research; and military/defense satellites.

Loading next visibility...
Identifier
58407, 2023-180F
Orbit
LEO
Country
Flag of USUS
Related business
Manufacturer
SpaceX/Seattle
Mission
Operational Commercial Communications
Bus & Motor
STARLINK V2M, Unknown motor
Mass
730 kg wet, ~700 kg dry
Launch date (UTC)
2023-11-22 (3 years ago)
Launch vehicle
FALCON 9
Launch site
Air Force Eastern Test Range (AFETR)
Object type
Payload
Rocket body
Debris
Shape & HBR
Box + 2 Pan, 17.7 m
Radar Cross Section
33.884 m², Large (>1 m²)

Expand to show TLE details & history
Last TLE update: 2 days ago

TLE from 2 days ago
0 STARLINK-30954
1 58407U 23180F   26171.12639948  .00001556  00000-0  66057-4 0  9992
2 58407  43.0041 193.9353 0001434 274.3136  85.7552 15.27578550143295
Epoch: 2026-06-20T03:02Z
TLE epoch observation values (Epoch: 2026-06-20T03:02:00.915Z)
Latitude
0.00001°
Longitude
-119.914°
Altitude
482.757 km
Speed
7.626 km/s
True Right ascension
12h 55m 44s
True Declination
0° 00' 00"
Sunlit
Object was in daylight at epoch
Visualization orbit readout
Latitude
Unknown
Longitude
Unknown
Altitude
Unknown
Speed
Unknown
Apparent Right ascension
Unknown
Apparent Declination
Unknown
Sunlit
N/A
Visualization observer readout
Local Sidereal Time
21:40:09
Azimuth
Unknown
Elevation
Unknown
Doppler factor
Unknown
Orbital elements
Apogee altitude
485.982 km
Perigee altitude
484.014 km
Semi-major axis
6,863.135 km
Eccentricity
0.00014
Inclination
43.0041°
RAAN
193.9353°
Arg. of periapsis
274.3136°
True anomaly
85.77159°
Mean anomaly
85.7552°
Eccentric anomaly
85.76339°
Mean motion
3.81733 °/min
Orbital period
94.31 mins
BSTAR
0.000066057
Loading maneuver chart data...
Computing Atmospheric mass density...
Loading historical data...
Loading historical data...
Loading historical data...
Loading historical data...
Loading historical data...
Loading historical data...
Loading historical data...

Documentation

Showing up to 5 results
|